DateTimeUTC,F1_A11,F1_S11,BsB_S11,BsG_S11,BsR_S11,BbsB_S11,BbsG_S11,BbsR_S11,BaB_A11,BaG_A11,BaR_A11,Tu_S11,T_S11,Uu_S11,U_S11,P_S11,T1_A11
2021-04-18T12:00:00Z,00040200,21000000,,,,,,,-000.38,0000.08,0000.29,16.8,24.2,,00.0,0649.6,31.0
2021-04-18T12:01:00Z,00040200,21000000,,,,,,,0000.15,0000.06,0000.14,16.8,24.2,,00.0,0649.6,31.0
2021-04-18T12:02:00Z,00040200,21000000,,,,,,,0000.43,0000.27,0000.01,16.8,24.2,,00.0,0649.6,31.0
2021-04-18T12:03:00Z,00040200,61000000,,,,,,,-000.38,-000.14,-000.12,16.8,24.2,,00.0,0649.6,31.0
2021-04-18T12:04:00Z,00040200,41000000,0000.14,0000.26,0000.15,0000.04,-000.01,0000.22,-000.08,-000.39,0000.13,17.0,24.0,,00.0,0650.5,31.0
2021-04-18T12:05:00Z,00040200,01000000,-000.07,0000.17,0000.08,0000.12,0000.18,0000.24,0000.49,0000.65,0000.32,17.0,24.0,,00.0,0650.6,31.0
2021-04-18T12:06:00Z,00040200,01000000,-000.35,0000.09,0000.27,0000.19,0000.16,0000.09,-000.12,0000.06,0000.02,17.0,24.0,,00.0,0650.6,31.0
2021-04-18T12:07:00Z,00040200,01000000,0000.14,0000.02,-000.02,0000.04,0000.21,0000.25,0000.77,0000.17,0000.26,17.0,23.9,,00.0,0650.6,31.0
2021-04-18T12:08:00Z,00040200,01000000,0000.05,0000.02,0000.38,-000.10,-000.01,-000.07,0000.09,0000.27,0000.09,17.1,23.9,,00.0,0650.5,31.0
2021-04-18T12:09:00Z,00040200,01000000,0000.46,0000.22,0000.06,0000.05,0000.13,0000.02,0000.29,0000.38,0000.21,17.1,23.9,,00.0,0650.5,31.0
2021-04-18T12:10:00Z,00040200,01000000,0000.07,0000.19,0000.26,0000.03,0000.22,0000.12,0000.26,0000.15,0000.27,17.1,24.0,,00.0,0650.5,31.0
2021-04-18T12:11:00Z,00040200,01000000,-000.64,0000.26,0000.31,0000.19,-000.01,0000.23,0000.24,0000.33,-000.31,17.1,24.0,,00.0,0650.5,31.0
2021-04-18T12:12:00Z,00040200,01000000,0000.17,0000.20,0000.14,0000.19,0000.15,0000.30,0000.56,0000.61,0000.69,17.1,24.0,,00.0,0650.5,31.0
2021-04-18T12:13:00Z,00040200,01000000,0000.60,-000.02,-000.11,0000.51,0000.22,-000.04,0000.51,0000.10,0000.24,17.2,24.0,,00.0,0650.5,31.0
2021-04-18T12:14:00Z,00040200,01000000,-000.13,0000.01,0000.12,0000.45,0000.10,0000.19,-000.01,0000.26,0000.13,17.1,24.0,,00.0,0650.5,31.0
2021-04-18T12:15:00Z,00040200,01000000,-000.79,0000.23,0000.19,-000.04,-000.00,0000.04,0000.42,0000.12,-000.23,17.1,24.0,,00.0,0650.5,31.0
2021-04-18T12:16:00Z,00040200,01000000,0000.92,0000.15,0000.09,0000.45,0000.21,0000.02,0000.95,0001.24,0000.99,17.2,24.0,,00.0,0650.5,31.0
2021-04-18T12:17:00Z,00040200,01000000,0000.12,0000.21,0000.05,0000.27,-000.01,-000.23,0000.67,0000.53,0000.52,17.1,24.0,,00.0,0650.5,31.0
2021-04-18T12:18:00Z,00040200,01000000,-000.13,0000.23,-000.12,0000.55,-000.10,0000.27,0000.54,0000.56,0000.30,17.2,24.0,,00.0,0650.5,31.0
2021-04-18T12:19:00Z,00040200,01000000,-000.21,0000.25,0000.34,-000.03,-000.20,0000.14,-000.21,-000.28,-000.40,17.2,24.0,00.0,00.0,0650.5,31.0
2021-04-18T12:20:00Z,00040200,01000000,0000.03,0000.19,0000.13,0000.11,0000.04,0000.10,-000.59,-000.21,-000.04,17.2,24.0,,00.0,0650.5,31.0
2021-04-18T12:21:00Z,00040200,01000000,-000.20,0000.33,0000.18,0000.28,-000.02,0000.18,-000.09,-000.72,-000.13,17.2,24.0,,00.0,0650.5,31.0
2021-04-18T12:22:00Z,00040200,01000000,0000.22,0000.34,0000.25,0000.79,0000.14,0000.27,-000.04,0000.29,-000.20,17.2,24.0,,00.0,0650.6,31.0
2021-04-18T12:23:00Z,00040200,01000000,0000.71,0000.48,0000.34,0000.03,0000.15,0000.09,0000.50,0000.55,0000.27,17.2,24.0,,00.0,0650.5,31.0
2021-04-18T12:24:00Z,00040200,01000000,0000.65,0000.29,0000.17,0000.27,0000.06,-000.14,0000.35,-000.26,0000.51,17.2,24.0,,00.0,0650.5,31.0
2021-04-18T12:25:00Z,00040200,01000000,0000.84,0000.06,-000.03,0000.08,0000.25,-000.15,-000.66,0000.03,-000.63,17.2,24.0,,00.0,0650.6,31.0
2021-04-18T12:26:00Z,00040200,01000000,0000.07,0000.20,-000.18,0000.22,0000.17,-000.22,-000.69,-000.87,-000.47,17.2,24.0,,00.0,0650.6,31.0
2021-04-18T12:27:00Z,00040200,01000000,0000.60,0000.35,0000.15,0000.45,0000.14,-000.20,0000.10,0000.44,0000.50,17.2,24.0,,00.0,0650.6,31.0
2021-04-18T12:28:00Z,00040200,01000000,0000.23,0000.31,0000.09,0000.58,0000.06,-000.01,0000.52,0000.03,0000.11,17.2,24.0,,00.0,0650.6,31.0
2021-04-18T12:29:00Z,00040200,01000000,0000.10,0000.27,0000.13,0000.47,0000.00,-000.05,0000.22,0000.30,0000.34,17.2,24.0,,00.0,0650.6,31.0
2021-04-18T12:30:00Z,00040200,01000000,0000.76,0000.53,0000.41,0000.38,0000.28,-000.04,0000.73,0000.58,0000.24,17.2,24.0,,00.0,0650.6,31.0
2021-04-18T12:31:00Z,00040200,01000000,0000.29,0000.42,0000.03,-000.23,0000.18,0000.24,-000.73,-000.34,-000.09,17.2,24.0,,00.0,0650.5,31.0
2021-04-18T12:32:00Z,00040200,01000000,0000.25,0000.12,0000.31,0000.05,-000.01,0000.20,-000.37,-000.24,-000.49,17.2,24.0,,00.0,0650.5,31.0
2021-04-18T12:33:00Z,00040200,01000000,0000.81,0000.63,0000.34,0000.11,0000.10,-000.12,0000.14,-000.27,-000.02,17.3,24.0,,00.0,0650.5,31.0
2021-04-18T12:34:00Z,00040200,01000000,0000.50,0000.41,0000.13,0000.45,0000.38,0000.05,0000.90,0000.68,0000.59,17.3,24.0,,00.0,0650.5,31.0
2021-04-18T12:35:00Z,00040200,01000000,0000.37,0000.58,0000.09,0000.27,0000.08,0000.15,0000.59,0000.10,0000.46,17.3,24.0,,00.0,0650.5,31.0
2021-04-18T12:36:00Z,00040200,01000000,0000.33,0000.16,0000.48,0000.56,0000.01,0000.22,0000.47,0001.07,0000.17,17.3,24.0,,00.0,0650.5,31.0
2021-04-18T12:37:00Z,00040200,01000000,0000.81,0000.29,0000.50,-000.06,0000.30,0000.14,0000.09,0000.29,0000.41,17.3,24.1,,00.0,0650.5,31.0
2021-04-18T12:38:00Z,00040200,01000000,0000.68,0000.51,0000.34,0000.11,-000.10,0000.22,-000.66,-000.64,-000.50,17.3,24.1,,00.0,0650.5,31.0
2021-04-18T12:39:00Z,00040200,01000000,0000.48,0000.37,0000.23,0000.07,0000.14,0000.09,-000.83,-000.92,-000.80,17.3,24.1,,00.0,0650.5,31.0
2021-04-18T12:40:00Z,00040200,01000000,0000.79,0000.31,0000.33,0000.44,0000.16,0000.12,-000.17,0000.19,0000.13,17.3,24.1,,00.0,0650.5,31.0
2021-04-18T12:41:00Z,00040200,01000000,0000.62,0000.53,0000.17,-000.00,0000.14,0000.02,-000.16,-000.19,-000.26,17.3,24.1,,00.0,0650.5,31.0
2021-04-18T12:42:00Z,00040200,01000000,0000.68,0000.70,0000.28,0000.58,0000.39,-000.10,0000.55,-000.33,0000.22,17.3,24.0,,00.0,0650.5,31.0
2021-04-18T12:43:00Z,00040200,01000000,0001.14,0000.47,0000.37,0000.06,0000.33,0000.08,0000.25,0000.86,-000.01,17.3,24.1,,00.0,0650.5,31.0
2021-04-18T12:44:00Z,00040200,01000000,0000.13,0000.26,0000.27,-000.13,0000.04,-000.01,0000.43,0000.04,0000.77,17.3,24.1,,00.0,0650.4,31.0
2021-04-18T12:45:00Z,00040200,01000000,0001.06,0000.43,0000.28,0000.04,0000.21,-000.05,0000.10,0000.03,0000.07,17.3,24.0,,00.0,0650.4,31.0
2021-04-18T12:46:00Z,00040200,01000000,0000.14,0000.03,-000.00,-000.03,0000.18,-000.08,-000.12,0000.07,0000.07,17.3,24.0,,00.0,0650.4,31.0
2021-04-18T12:47:00Z,00040200,01000000,0000.68,0000.22,0000.40,0000.21,0000.09,0000.00,0000.28,0000.54,0000.33,17.3,24.1,,00.0,0650.4,31.0
2021-04-18T12:48:00Z,00040200,01000000,0000.87,0000.73,0000.56,0000.58,-000.01,0000.14,0000.35,0000.70,0000.19,17.3,24.1,,00.0,0650.4,31.0
2021-04-18T12:49:00Z,00040200,01000000,0001.35,0000.73,0000.33,0000.65,0000.15,-000.07,0000.18,-000.56,-000.23,17.3,24.1,,00.0,0650.4,31.0
2021-04-18T12:50:00Z,00040200,01000000,0001.10,0000.81,0000.48,0000.26,0000.14,0000.30,0000.27,0000.58,0000.34,17.3,24.1,,00.0,0650.4,31.0
2021-04-18T12:51:00Z,00040200,01000000,0001.44,0000.77,0000.47,-000.03,0000.09,-000.16,0000.22,0000.09,0000.04,17.3,24.1,,00.0,0650.4,31.0
2021-04-18T12:52:00Z,00040200,01000000,0000.94,0000.76,0000.36,0000.35,-000.17,0000.28,0001.22,0001.10,0000.87,17.3,24.1,,00.0,0650.4,31.0
2021-04-18T12:53:00Z,00040200,01000000,0001.13,0000.84,0000.53,0000.53,0000.01,0000.17,0000.33,0000.35,0000.24,17.3,24.1,,00.0,0650.4,31.0
2021-04-18T12:54:00Z,00040200,01000000,0000.71,0000.54,0000.60,0000.36,0000.06,-000.00,0000.39,0000.45,0000.26,17.4,24.1,,00.0,0650.3,31.0
2021-04-18T12:55:00Z,00040200,01000000,0001.12,0000.87,0000.73,0000.37,0000.12,0000.14,0000.13,0000.09,0000.27,17.4,24.1,,00.0,0650.4,31.0
2021-04-18T12:56:00Z,00040200,01000000,0000.95,0000.66,0000.39,-000.21,0000.04,0000.06,-000.13,0000.13,0000.06,17.5,24.1,,00.0,0650.4,31.0
2021-04-18T12:57:00Z,00040200,41000000,,,,,,,-000.53,-000.80,-000.71,17.5,24.2,,00.0,0650.3,31.0
2021-04-18T12:58:00Z,00040200,61000000,,,,,,,0000.09,0000.08,-000.19,17.3,24.3,,00.0,0649.4,31.0
2021-04-18T12:59:00Z,00040200,21000000,,,,,,,-000.84,-000.44,0000.14,17.3,24.4,,00.0,0649.4,31.0
